Date String (YYYY-MM-DD hh:mm:ss) UTC,Instrument flags,Ambient pressure (hPa),Sample flow (lpm),Bypass flow (lpm),Sample temperature (°C),Ambient temperature (°C),ASC tube jacket temperature (°C),LED temperature (°C),Box temperature (°C),Sample RH (%),Span deviation,Mass concentration (μg/m³),Mass concentration (μg/m³),Mass concentration (μg/m³)
DateTimeUTC,F1_M11,P_M11,Q1_M11,Q2_M11,T1_M11,T2_M11,T3_M11,T4_M11,T5_M11,U1_M11,ZSPAN_M11,X0_M11,X2_M11,X1_M11
2023-02-13 23:00:00,,0810.9,5.00,0.00,26.3,24.9,00.0,35.1,28.1,10.0,0000.0,0017.93,0007.96,0006.73
2023-02-13 23:01:00,,0810.9,5.01,0.00,26.3,24.9,00.0,35.1,28.1,09.9,0000.0,0018.34,0008.06,0006.79
2023-02-13 23:02:00,,0810.8,4.99,0.00,26.3,24.9,00.0,35.1,28.1,10.1,0000.0,0019.21,0008.19,0006.87
2023-02-13 23:03:00,,0810.8,5.00,0.00,26.3,24.9,00.0,35.1,28.1,10.6,0000.0,0019.17,0008.28,0006.97
2023-02-13 23:04:00,,0810.8,5.00,0.00,26.3,24.9,00.0,35.1,28.1,10.7,0000.0,0018.24,0008.37,0007.12
2023-02-13 23:05:00,,0810.7,5.01,0.00,26.3,24.9,00.0,35.1,28.2,10.6,0000.0,0018.41,0008.51,0007.27
2023-02-13 23:06:00,,0810.7,4.99,0.00,26.3,24.9,00.0,35.1,28.2,10.5,0000.0,0019.48,0008.69,0007.38
2023-02-13 23:07:00,,0810.7,5.01,0.00,26.3,24.9,00.0,35.1,28.2,10.5,0000.0,0020.05,0008.82,0007.50
2023-02-13 23:08:00,,0810.7,5.02,0.00,26.3,24.9,00.0,35.1,28.2,10.5,0000.0,0019.45,0008.92,0007.59
2023-02-13 23:09:00,,0810.7,5.00,0.00,26.3,24.9,00.0,35.1,28.2,10.5,0000.0,0019.74,0009.04,0007.69
2023-02-13 23:10:00,,0810.8,4.98,0.00,26.3,24.9,00.0,35.1,28.2,10.6,0000.0,0019.86,0009.15,0007.78
2023-02-13 23:11:00,,0810.8,5.00,0.00,26.3,24.9,00.0,35.1,28.2,10.6,0000.0,0021.50,0009.33,0007.87
2023-02-13 23:12:00,,0810.9,5.01,0.00,26.3,24.9,00.0,35.1,28.2,10.5,0000.0,0022.57,0009.43,0007.95
2023-02-13 23:13:00,,0810.8,5.00,0.00,26.3,24.9,00.0,35.1,28.2,10.5,0000.0,0023.02,0009.55,0008.00
2023-02-13 23:14:00,,0810.8,5.00,0.00,26.3,24.9,00.0,35.1,28.2,10.1,0000.0,0024.03,0009.62,0008.03
2023-02-13 23:15:00,,0810.8,5.00,0.00,26.3,24.8,00.0,35.1,28.2,09.9,0000.0,0024.72,0009.63,0008.03
2023-02-13 23:16:00,,0810.8,5.00,0.00,26.3,24.8,00.0,35.1,28.2,09.8,0000.0,0024.92,0009.61,0008.01
2023-02-13 23:17:00,,0810.7,5.01,0.00,26.3,24.8,00.0,35.1,28.2,09.8,0000.0,0023.78,0009.54,0008.00
2023-02-13 23:18:00,,0810.7,5.02,0.00,26.3,24.8,00.0,35.1,28.2,09.8,0000.0,0022.98,0009.48,0007.99
2023-02-13 23:19:00,,0810.6,5.01,0.00,26.3,24.8,00.0,35.1,28.1,09.9,0000.0,0022.81,0009.44,0008.00
2023-02-13 23:20:00,,0810.6,4.99,0.00,26.3,24.8,00.0,35.1,28.1,09.8,0000.0,0022.66,0009.44,0008.01
2023-02-13 23:21:00,,0810.6,5.01,0.00,26.3,24.8,00.0,35.1,28.1,09.7,0000.0,0022.39,0009.41,0008.03
2023-02-13 23:22:00,,0810.6,4.98,0.00,26.3,24.8,00.0,35.1,28.1,09.6,0000.0,0020.83,0009.34,0008.04
2023-02-13 23:23:00,,0810.6,5.00,0.00,26.3,24.8,00.0,35.1,28.1,09.6,0000.0,0019.67,0009.31,0008.04
2023-02-13 23:24:00,,0810.6,4.99,0.00,26.3,24.8,00.0,35.1,28.1,09.6,0000.0,0019.14,0009.23,0008.02
2023-02-13 23:25:00,,0810.6,5.01,0.00,26.3,24.8,00.0,35.1,28.1,09.5,0000.0,0017.87,0009.13,0008.01
2023-02-13 23:26:00,,0810.5,4.99,0.00,26.3,24.8,00.0,35.1,28.1,09.6,0000.0,0017.78,0009.09,0007.96
2023-02-13 23:27:00,,0810.5,4.99,0.00,26.3,24.8,00.0,35.1,28.1,09.6,0000.0,0017.09,0008.95,0007.90
2023-02-13 23:28:00,,0810.4,5.00,0.00,26.3,24.8,00.0,35.1,28.1,09.7,0000.0,0017.02,0008.87,0007.85
2023-02-13 23:29:00,,0810.4,5.00,0.00,26.3,24.8,00.0,35.1,28.1,09.7,0000.0,0017.28,0008.87,0007.80
2023-02-13 23:30:00,,0810.4,5.02,0.00,26.3,24.8,00.0,35.1,28.1,09.6,0000.0,0017.61,0008.82,0007.74
2023-02-13 23:31:00,,0810.4,5.02,0.00,26.3,24.8,00.0,35.1,28.1,09.5,0000.0,0016.65,0008.73,0007.66
2023-02-13 23:32:00,,0810.4,5.01,0.00,26.3,24.8,00.0,35.1,28.1,09.5,0000.0,0016.83,0008.54,0007.55
2023-02-13 23:33:00,,0810.3,5.00,0.00,26.3,24.8,00.0,35.1,28.1,09.3,0000.0,0016.76,0008.38,0007.44
2023-02-13 23:34:00,,0810.3,5.01,0.00,26.3,24.8,00.0,35.1,28.1,09.1,0000.0,0016.61,0008.28,0007.34
2023-02-13 23:35:00,,0810.3,5.02,0.00,26.3,24.8,00.0,35.1,28.1,08.8,0000.0,0016.34,0008.14,0007.24
2023-02-13 23:36:00,,0810.2,5.00,0.00,26.3,24.8,00.0,35.1,28.1,08.9,0000.0,0017.88,0008.06,0007.15
2023-02-13 23:37:00,,0810.2,5.00,0.00,26.2,24.8,00.0,35.1,28.1,09.1,0000.0,0018.40,0007.98,0007.10
2023-02-13 23:38:00,,0810.2,5.00,0.00,26.2,24.8,00.0,35.1,28.1,09.2,0000.0,0018.87,0007.94,0007.06
2023-02-13 23:39:00,,0810.2,5.00,0.00,26.2,24.8,00.0,35.1,28.1,09.1,0000.0,0018.75,0007.91,0007.01
2023-02-13 23:40:00,,0810.2,4.98,0.00,26.2,24.8,00.0,35.1,28.1,09.2,0000.0,0019.60,0007.84,0006.96
2023-02-13 23:41:00,,0810.2,4.99,0.00,26.2,24.8,00.0,35.1,28.1,09.3,0000.0,0019.88,0007.79,0006.92
2023-02-13 23:42:00,,0810.2,5.00,0.00,26.2,24.8,00.0,35.1,28.1,09.4,0000.0,0019.87,0007.79,0006.89
2023-02-13 23:43:00,,0810.2,5.01,0.00,26.2,24.8,00.0,35.1,28.1,09.4,0000.0,0019.51,0007.84,0006.87
2023-02-13 23:44:00,,0810.2,5.01,0.00,26.2,24.8,00.0,35.1,28.1,09.4,0000.0,0020.10,0007.90,0006.85
2023-02-13 23:45:00,,0810.2,4.99,0.00,26.2,24.8,00.0,35.1,28.1,09.4,0000.0,0020.61,0007.88,0006.83
2023-02-13 23:46:00,,0810.2,5.00,0.00,26.2,24.8,00.0,35.1,28.1,09.1,0000.0,0021.16,0007.87,0006.82
2023-02-13 23:47:00,,0810.2,4.97,0.00,26.2,24.8,00.0,35.1,28.1,08.8,0000.0,0019.73,0007.87,0006.80
2023-02-13 23:48:00,,0810.2,5.01,0.00,26.2,24.8,00.0,35.1,28.1,08.3,0000.0,0018.99,0007.81,0006.74
2023-02-13 23:49:00,,0810.2,5.00,0.00,26.2,24.8,00.0,35.1,28.1,07.9,0000.0,0018.21,0007.73,0006.67
2023-02-13 23:50:00,,0810.2,4.99,0.00,26.2,24.7,00.0,35.1,28.1,07.8,0000.0,0018.01,0007.65,0006.59
2023-02-13 23:51:00,,0810.2,5.00,0.00,26.2,24.7,00.0,35.1,28.1,07.7,0000.0,0016.85,0007.54,0006.52
2023-02-13 23:52:00,,0810.2,5.00,0.00,26.2,24.7,00.0,35.1,28.1,08.1,0000.0,0015.74,0007.46,0006.45
2023-02-13 23:53:00,,0810.2,5.00,0.00,26.2,24.6,00.0,35.1,28.1,08.1,0000.0,0015.83,0007.39,0006.41
2023-02-13 23:54:00,,0810.2,5.00,0.00,26.2,24.6,00.0,35.1,28.1,07.9,0000.0,0016.43,0007.30,0006.36
2023-02-13 23:55:00,,0810.2,5.00,0.00,26.2,24.6,00.0,35.0,28.0,07.8,0000.0,0015.76,0007.24,0006.32
2023-02-13 23:56:00,,0810.2,5.00,0.00,26.2,24.6,00.0,35.0,28.0,08.0,0000.0,0015.33,0007.14,0006.25
2023-02-13 23:57:00,,0810.2,5.00,0.00,26.2,24.5,00.0,35.0,28.0,08.2,0000.0,0015.13,0007.07,0006.19
2023-02-13 23:58:00,,0810.2,4.99,0.00,26.2,24.4,00.0,35.0,28.0,08.9,0000.0,0015.40,0007.10,0006.16
2023-02-13 23:59:00,,0810.2,5.00,0.00,26.1,24.3,00.0,35.0,27.9,09.2,0000.0,0015.59,0007.30,0006.19
